This is the latest recevied weather packets stored in our database for station/object KF0EZB. If no packets are shown the sender has not sent any weather packets the latest 10 day(s).
| Time | Temp. | Humidity | Pressure | Rain* | Wind** | Luminosity | Snow |
|---|---|---|---|---|---|---|---|
| 1777745432 | 18.33° C | 33% | 1021.5 hPa | 0 mm | - | 760 W/m² | - |
| 1777745129 | 18.33° C | 33% | 1021.4 hPa | 0 mm | - | 753 W/m² | - |
| 1777744826 | 18.89° C | 33% | 1021.6 hPa | 0 mm | - | 738 W/m² | - |
| 1777744520 | 18.89° C | 34% | 1021.5 hPa | 0 mm | - | 717 W/m² | - |
| 1777744216 | 17.22° C | 38% | 1021.8 hPa | 0 mm | - | 685 W/m² | - |
| 1777743914 | 16.67° C | 35% | 1021.7 hPa | 0 mm | - | 686 W/m² | - |
| 1777743610 | 17.22° C | 35% | 1021.9 hPa | 0 mm | - | 691 W/m² | - |
| 1777743307 | 17.22° C | 35% | 1021.8 hPa | 0 mm | - | 717 W/m² | - |
| 1777743005 | 17.22° C | 37% | 1021.7 hPa | 0 mm | - | 728 W/m² | - |
| 1777742702 | 17.22° C | 37% | 1021.8 hPa | 0 mm | - | 739 W/m² | - |
| 1777742398 | 16.67° C | 38% | 1022.1 hPa | 0 mm | - | 728 W/m² | - |
| 1777742094 | 17.22° C | 37% | 1021.7 hPa | 0 mm | - | 708 W/m² | - |
| 1777741792 | 17.78° C | 36% | 1022 hPa | 0 mm | - | 698 W/m² | - |
| 1777741488 | 17.22° C | 37% | 1022.1 hPa | 0 mm | - | 688 W/m² | - |
| 1777741184 | 16.67° C | 39% | 1022 hPa | 0 mm | - | 700 W/m² | - |
| 1777740882 | 16.67° C | 39% | 1022.3 hPa | 0 mm | - | 714 W/m² | - |
| 1777740578 | 16.67° C | 38% | 1022.4 hPa | 0 mm | - | 757 W/m² | - |
| 1777740275 | 16.11° C | 39% | 1022.4 hPa | 0 mm | - | 747 W/m² | - |
| 1777739971 | 16.11° C | 40% | 1022.5 hPa | 0 mm | - | 749 W/m² | - |
| 1777739667 | 15.56° C | 39% | 1022.6 hPa | 0 mm | - | 724 W/m² | - |
| 1777739365 | 16.11° C | 40% | 1022.4 hPa | 0 mm | - | 686 W/m² | - |
| 1777739062 | 15° C | 42% | 1022.4 hPa | 0 mm | - | 684 W/m² | - |
| 1777738759 | 15° C | 41% | 1022.6 hPa | 0 mm | - | 701 W/m² | - |
| 1777738455 | 16.11° C | 41% | 1022.4 hPa | 0 mm | - | 744 W/m² | - |
| 1777738153 | 15.56° C | 44% | 1022.4 hPa | 0 mm | - | 744 W/m² | - |
* Rain latest hour (hover to see other rain measurements)
** Current wind speed in m/s (hover to see current wind gust speed)